Location: Gro�wechsungen
(51.4926°N, 10.6901°E)
Time: 11:06:24
(UTC+00:00)

Cosmos 1805 - Pass Details

Date: 18 September 2020
Orbit: 524 x 531 km, 82.5° (Epoch: 25 October)

Event Time Altitude Azimuth Distance (km) Brightness Sun altitude
Exits shadow 19:00:34 27° 89° (E) 1,039 4.2 -15.4°
Drops below altitude 10° 19:03:54 10° 31° (NNE) 1,793 5.9 -15.9°
Sets 19:06:16 0° 20° (NNE) 2,690 6.9 -16.2°
